Location: Topeka
(39.0480°N, 95.6780°W)
Time: 09:23:42
(UTC-06:00)

ISS - Visible Passes

Search period start: 21 February 2018 00:00
Search period end: 03 March 2018 00:00
Orbit: 403 x 407 km, 51.6° (Epoch: 22 February)

Date Brightness Start Highest point End Pass type
(mag) Time Alt. Az. Time Alt. Az. Time Alt. Az.
23 Feb -0.7 06:32:18 10° SSE 06:34:13 15° SE 06:36:07 10° E visible
25 Feb -2.2 06:22:56 10° SSW 06:25:58 36° SE 06:29:01 10° ENE visible
26 Feb -1.2 05:31:32 10° S 05:33:52 19° SE 05:36:15 10° E visible
27 Feb -3.9 06:14:34 10° SW 06:17:50 83° NW 06:21:07 10° NE visible
28 Feb -3.0 05:24:32 32° S 05:25:36 47° SE 05:28:46 10° ENE visible
01 Mar -1.0 04:34:48 18° E 04:34:48 18° E 04:36:07 10° ENE visible
01 Mar -3.0 06:07:29 15° W 06:09:47 35° NNW 06:12:51 10° NE visible
02 Mar -3.8 05:17:35 64° NNW 05:17:35 64° NNW 05:20:42 10° NE visible
